This is the latest recevied weather packets stored in our database for station/object KC8ZBC. If no packets are shown the sender has not sent any weather packets the latest 10 day(s).
| Time | Temp. | Humidity | Pressure | Rain* | Wind** | Luminosity | Snow |
|---|---|---|---|---|---|---|---|
| 1777808619 | 5.56° C | 60% | 988 hPa | 0 mm | - | 35 W/m² | - |
| 1777808316 | 5.56° C | 62% | 988 hPa | 0 mm | - | 28 W/m² | - |
| 1777808015 | 5.56° C | 61% | 988.1 hPa | 0 mm | - | 32 W/m² | - |
| 1777807711 | 5° C | 61% | 988 hPa | 0 mm | - | 27 W/m² | - |
| 1777807410 | 5° C | 61% | 987.9 hPa | 0 mm | - | 23 W/m² | - |
| 1777807109 | 5° C | 60% | 988.1 hPa | 0 mm | - | 21 W/m² | - |
| 1777806808 | 5° C | 61% | 987.8 hPa | 0 mm | - | 18 W/m² | - |
| 1777806503 | 4.44° C | 61% | 987.9 hPa | 0 mm | - | 16 W/m² | - |
| 1777806200 | 4.44° C | 61% | 988.1 hPa | 0 mm | - | 13 W/m² | - |
| 1777805896 | 4.44° C | 61% | 988 hPa | 0 mm | - | 11 W/m² | - |
| 1777805594 | 4.44° C | 60% | 987.9 hPa | 0 mm | - | 9 W/m² | - |
| 1777805291 | 4.44° C | 61% | 988 hPa | 0 mm | - | 6 W/m² | - |
| 1777804989 | 4.44° C | 62% | 988.1 hPa | 0 mm | - | 4 W/m² | - |
| 1777804686 | 3.89° C | 60% | 987.9 hPa | 0 mm | - | 1 W/m² | - |
| 1777804384 | 3.89° C | 62% | 987.9 hPa | 0 mm | - | 0 W/m² | - |
| 1777804081 | 3.89° C | 63% | 987.9 hPa | 0 mm | - | 0 W/m² | - |
| 1777803777 | 3.89° C | 61% | 988 hPa | 0 mm | - | 0 W/m² | - |
| 1777803473 | 3.33° C | 62% | 988 hPa | 0 mm | - | 0 W/m² | - |
| 1777803171 | 3.33° C | 63% | 988.1 hPa | 0 mm | - | 0 W/m² | - |
| 1777802868 | 2.78° C | 63% | 988.1 hPa | 0 mm | - | 0 W/m² | - |
| 1777802566 | 2.78° C | 64% | 988.3 hPa | 0 mm | - | 0 W/m² | - |
| 1777802263 | 2.78° C | 65% | 988.3 hPa | 0 mm | - | 0 W/m² | - |
| 1777801962 | 2.78° C | 66% | 988.2 hPa | 0 mm | - | 0 W/m² | - |
| 1777801658 | 2.78° C | 65% | 988.4 hPa | 0 mm | - | 0 W/m² | - |
| 1777801356 | 2.78° C | 64% | 988.7 hPa | 0 mm | - | 0 W/m² | - |
* Rain latest hour (hover to see other rain measurements)
** Current wind speed in m/s (hover to see current wind gust speed)